Regional Weather Roundup
Issued by NWS Albany, NY

Home | Current Version | Previous Version | Graphics & Text | Print | Product List | Glossary Off
Versions: 1 2 3 4 5 6 7 8 9 10 11 12 13 14 15 16 17 18 19 20 21 22 23 24 25 26 27

000
ASUS41 KALY 161810
RWRALY

NEW YORK STATE HOURLY WEATHER ROUNDUP
NATIONAL WEATHER SERVICE ALBANY NY
100 PM EST SAT DEC 16 2017

NOTE: "FAIR" INDICATES FEW OR NO CLOUDS BELOW 12,000 FEET WITH NO
SIGNIFICANT WEATHER AND/OR NO OBSTRUCTIONS TO VISIBILITY.

NYZ032-033-038>043-046>054-057>066-NYZ062>081-082-084-161900-
EAST


CITY           SKY/WX    TMP DP  RH WIND       PRES   REMARKS
ALBANY         FLURRIES  30  19  63 W12       29.93S WCI  20
GLENS FALLS    CLOUDY    28  17  63 SW15G23   29.88F WCI  16
POUGHKEEPSIE   CLOUDY    31  19  61 W12       29.95F WCI  22
NEWBURGH       PTSUNNY   30  23  74 W12G21    29.94F WCI  21
MONTGOMERY     CLOUDY    30  19  63 SW13      29.92F WCI  20
WHITE PLAINS   PTSUNNY   33  18  53 W14G24    29.95F WCI  23
ISLIP          MOSUNNY   35  22  58 W14       29.97F WCI  26
NEW YORK CITY  PTSUNNY   38  21  50 W16G22    29.98F WCI  29
CENTRAL PARK   MOSUNNY   36  20  52 W10G23    30.00F WCI  28
$$

NYZ005>009-017-018-044>046-055-056-161900-
CENTRAL


CITY           SKY/WX    TMP DP  RH WIND       PRES   REMARKS
FULTON         LGT SNOW  25  22  88 W5        29.95R FOG     WCI  19
SYRACUSE       LGT SNOW  24  23  96 W13       29.95R VSB 3/4 WCI  12
ROME           LGT SNOW  24  22  91 W12       29.95R VSB 3/4 WCI  13
ELMIRA         LGT SNOW  28  26  92 E6        29.92S VSB 3/4 WCI  22
BINGHAMTON     LGT SNOW  24  19  81 NW7       29.87S WCI  16
MONTICELLO     LGT SNOW  28  22  78 W5        29.88F WCI  23
$$

NYZ026>034-041>043-087-161900-
NORTH


CITY           SKY/WX    TMP DP  RH WIND       PRES   REMARKS
WATERTOWN      CLOUDY    26   7  44 NW12      29.93R WCI  16
FORT DRUM      NOT AVBL
OGDENSBURG     FAIR      27  13  53 W6        29.92R WCI  21
MASSENA        MOSUNNY   20  10  65 W10       29.93R WCI   9
SARANAC LAKE   MOSUNNY   19  10  68 W8G20     29.76S WCI   9
PLATTSBURGH    PTSUNNY   29  11  47 W10G22    29.85R WCI  20
$$

NYZ001>004-010>016-019>021-085-161900-
WEST


CITY           SKY/WX    TMP DP  RH WIND       PRES   REMARKS
NIAGARA FALLS  FLURRIES  29  19  66 NW9       29.97R WCI  20
BUFFALO        LGT SNOW  25  22  88 W7        29.97R VSB 1   WCI  17
DUNKIRK        SNOW      27  26  96 NW5       29.99R VSB 1/2 WCI  22
JAMESTOWN      LGT SNOW  28  26  92 NW9       29.91S FOG     WCI  19
WELLSVILLE     LGT SNOW  27  23  85 N10       29.88R FOG     WCI  17
ROCHESTER      LGT SNOW  25  22  88 N9        29.98R FOG     WCI  15
PENN YAN       LGT SNOW  26  20  77 SW8       29.94S VSB 3/4 WCI  18
$$

             KEY
       WCI = WIND CHILL INDEX
       VSB = VISIBILITY
       HX  = HEAT INDEX
$$




USA.gov is the U.S. government's official web portal to all federal, state and local government web resources and services.